Weather History for Kansas City, MO

Change the Weather History Date:

Friday, July 5, 2013

  Actual Average Record
Temperature  
Mean Temperature 79 °F -  
Max Temperature 90 °F 86 °F 102 °F (2012)
Min Temperature 69 °F 68 °F 57 °F (1997)
Cooling Degree Days 14    
Growing Degree Days 29 (Base 50)    
Moisture  
Dew Point 59 °F    
Average Humidity 50    
Maximum Humidity 68    
Minimum Humidity 35    
Precipitation  
Precipitation 0.00 in - - ()
Sea Level Pressure  
Sea Level Pressure 29.94 in    
Wind  
Wind Speed 9 mph (South)    
Max Wind Speed 15 mph    
Max Gust Speed 24 mph    
Visibility 10 miles    
Events      
Averages and records for this station are not official NWS values.
T = Trace of Precipitation, MM = Missing Value Source: NWS Daily Summary

Daily Weather History Graph

Daily Weather History Graph

Search for Another Location

Airport:

Trip Planner

Search our weather history database for the weather conditions in past years. The results will help you decide how hot, cold, wet, or windy it might be!

Date:

Astronomy

Jul. 05, 2013 Rise Set
Actual Time 5:58 AM CDT 8:47 PM CDT
Civil Twilight 5:26 AM CDT 9:19 PM CDT
Nautical Twilight 4:46 AM CDT 9:59 PM CDT
Astronomical Twilight 4:00 AM CDT 10:45 PM CDT
Moon 3:57 AM CDT (7/5) 6:43 PM CDT (7/5)
Length of Visible Light 15h 52m
Length of Day
14h 49m
Waning Crescent, 6% of the Moon is Illuminated
Jul 5
Waning Crescent
Jul 8
New
Jul 15
First Quarter
Jul 22
Full
Jul 29
Last Quarter

Hourly Weather History & Observations

Time (CDT) Temp. Heat Index Dew Point Humidity Pressure Visibility Wind Dir Wind Speed Gust Speed Precip Events Conditions
12:54 AM 75.0 °F - 57.0 °F 53% 29.95 in 10.0 mi South 10.4 mph - N/A   Clear
1:54 AM 73.0 °F - 57.9 °F 59% 29.95 in 10.0 mi South 8.1 mph - N/A   Clear
2:54 AM 72.0 °F - 57.0 °F 59% 29.95 in 10.0 mi South 6.9 mph - N/A   Partly Cloudy
3:54 AM 72.0 °F - 57.0 °F 59% 29.95 in 10.0 mi SSW 9.2 mph - N/A   Partly Cloudy
4:54 AM 70.0 °F - 57.0 °F 63% 29.96 in 10.0 mi SSW 5.8 mph - N/A   Clear
5:54 AM 69.1 °F - 57.0 °F 65% 29.97 in 10.0 mi South 9.2 mph - N/A   Partly Cloudy
6:54 AM 70.0 °F - 59.0 °F 68% 29.97 in 10.0 mi Calm Calm - N/A   Scattered Clouds
7:54 AM 71.1 °F - 57.9 °F 63% 29.99 in 10.0 mi South 9.2 mph - N/A   Clear
8:54 AM 75.0 °F - 60.1 °F 60% 29.99 in 10.0 mi SSW 6.9 mph - N/A   Clear
9:54 AM 79.0 °F - 61.0 °F 54% 29.97 in 10.0 mi South 8.1 mph - N/A   Clear
10:54 AM 82.0 °F 83.0 °F 62.1 °F 51% 29.98 in 10.0 mi South 6.9 mph - N/A   Clear
11:54 AM 84.9 °F 85.4 °F 62.1 °F 46% 29.96 in 10.0 mi South 6.9 mph - N/A   Clear
12:54 PM 86.0 °F 86.8 °F 63.0 °F 46% 29.94 in 10.0 mi Variable 5.8 mph - N/A   Clear
1:54 PM 88.0 °F 88.4 °F 62.1 °F 42% 29.94 in 10.0 mi SSE 10.4 mph 24.2 mph N/A   Clear
2:54 PM 89.1 °F 88.8 °F 60.1 °F 38% 29.93 in 10.0 mi South 12.7 mph 18.4 mph N/A   Clear
3:54 PM 89.1 °F 88.2 °F 59.0 °F 36% 29.91 in 10.0 mi South 11.5 mph 20.7 mph N/A   Clear
4:54 PM 89.1 °F 88.0 °F 57.9 °F 35% 29.89 in 10.0 mi South 12.7 mph - N/A   Clear
5:54 PM 89.1 °F 88.2 °F 59.0 °F 36% 29.88 in 10.0 mi South 13.8 mph 20.7 mph N/A   Clear
6:54 PM 88.0 °F 86.9 °F 57.9 °F 36% 29.88 in 10.0 mi SSE 4.6 mph 18.4 mph N/A   Clear
7:54 PM 86.0 °F 85.4 °F 59.0 °F 40% 29.88 in 10.0 mi SE 9.2 mph - N/A   Clear
8:54 PM 84.0 °F 83.8 °F 59.0 °F 43% 29.88 in 10.0 mi SE 9.2 mph - N/A   Clear
9:54 PM 82.0 °F 82.1 °F 59.0 °F 45% 29.90 in 10.0 mi SE 12.7 mph - N/A   Clear
10:54 PM 81.0 °F 81.3 °F 59.0 °F 47% 29.92 in 10.0 mi SE 13.8 mph 20.7 mph N/A   Clear
11:54 PM 80.1 °F 80.7 °F 59.0 °F 48% 29.92 in 10.0 mi SE 15.0 mph 21.9 mph N/A   Clear